• In Uzbekistan
  • List of Countries
  • For 7 days
  • Water Temperature
  • Satellite Maps
  • Weather Map
  • Weather Widgets
  • user-avatar
    Login

    Hourly Weather Barra

    Today, 23 September, Sunday

    Time Temperature Precipitation Wind Pressure Humidity
    00:00 +19°C° 0.1 mm 5 mps 754 mmHg 91%
    01:00 +19°C° 0.1 mm 5 mps 753 mmHg 92%
    02:00 +19°C° 0.1 mm 5 mps 753 mmHg 92%
    03:00 +19°C° 0.1 mm 5 mps 753 mmHg 92%
    04:00 +19°C° 0.1 mm 5 mps 753 mmHg 92%
    05:00 +19°C° 0.1 mm 5 mps 753 mmHg 91%
    06:00 +19°C° 0.1 mm 5 mps 753 mmHg 90%
    07:00 +20°C° 0.1 mm 5 mps 753 mmHg 88%
    08:00 +21°C° 0.1 mm 5 mps 753 mmHg 79%
    09:00 +23°C° 0.1 mm 5 mps 754 mmHg 71%
    10:00 +25°C° 0.1 mm 5 mps 754 mmHg 62%
    11:00 +26°C° 0.1 mm 5 mps 753 mmHg 57%
    12:00 +27°C° 0.1 mm 6 mps 753 mmHg 52%
    13:00 +28°C° 0.1 mm 6 mps 752 mmHg 47%
    14:00 +28°C° 0 mm 6 mps 752 mmHg 48%
    15:00 +28°C° 0 mm 6 mps 751 mmHg 50%
    16:00 +27°C° 0 mm 6 mps 751 mmHg 51%
    17:00 +25°C° 0 mm 5 mps 751 mmHg 59%
    18:00 +23°C° 0 mm 5 mps 752 mmHg 67%
    19:00 +21°C° 0 mm 4 mps 752 mmHg 75%
    20:00 +21°C° 0 mm 4 mps 752 mmHg 79%
    21:00 +20°C° 0 mm 4 mps 753 mmHg 82%
    22:00 +20°C° 0 mm 4 mps 753 mmHg 85%
    23:00 +20°C° 0 mm 4 mps 753 mmHg 86%

    Tomorrow, 24 September, Monday

    Time Temperature Precipitation Wind Pressure Humidity
    00:00 +19°C° 0 mm 4 mps 752 mmHg 88%
    01:00 +19°C° 0 mm 4 mps 752 mmHg 89%
    02:00 +19°C° 0 mm 4 mps 752 mmHg 91%
    03:00 +19°C° 0 mm 4 mps 751 mmHg 92%
    04:00 +19°C° 0 mm 3 mps 751 mmHg 93%
    05:00 +19°C° 0 mm 4 mps 751 mmHg 92%
    06:00 +19°C° 0 mm 4 mps 752 mmHg 91%
    07:00 +19°C° 0 mm 4 mps 752 mmHg 90%
    08:00 +22°C° 0 mm 4 mps 752 mmHg 77%
    09:00 +25°C° 0 mm 4 mps 752 mmHg 64%
    10:00 +28°C° 0 mm 5 mps 752 mmHg 50%
    11:00 +28°C° 0 mm 5 mps 752 mmHg 47%
    12:00 +29°C° 0 mm 5 mps 751 mmHg 43%
    13:00 +30°C° 0 mm 5 mps 751 mmHg 39%
    14:00 +29°C° 0 mm 5 mps 750 mmHg 41%
    15:00 +28°C° 0 mm 5 mps 750 mmHg 42%
    16:00 +28°C° 0 mm 5 mps 750 mmHg 44%
    17:00 +26°C° 0 mm 5 mps 750 mmHg 54%
    18:00 +23°C° 0 mm 4 mps 750 mmHg 64%
    19:00 +21°C° 0 mm 4 mps 751 mmHg 75%
    20:00 +21°C° 0 mm 4 mps 751 mmHg 79%
    21:00 +20°C° 0 mm 4 mps 752 mmHg 83%
    22:00 +20°C° 0 mm 4 mps 752 mmHg 87%
    23:00 +20°C° 0.2 mm 4 mps 752 mmHg 89%

    Day after tomorrow, 25 September, Tuesday

    Time Temperature Precipitation Wind Pressure Humidity
    00:00 +20°C° 0.2 mm 4 mps 752 mmHg 90%
    01:00 +19°C° 0.2 mm 4 mps 751 mmHg 92%
    02:00 +19°C° 0.3 mm 4 mps 751 mmHg 93%
    03:00 +19°C° 0.3 mm 4 mps 751 mmHg 93%
    04:00 +19°C° 0.3 mm 4 mps 750 mmHg 94%
    05:00 +19°C° 0.1 mm 4 mps 751 mmHg 92%
    06:00 +20°C° 0.1 mm 4 mps 751 mmHg 91%
    07:00 +20°C° 0.1 mm 4 mps 752 mmHg 89%
    08:00 +22°C° 0.1 mm 4 mps 752 mmHg 79%
    09:00 +25°C° 0.1 mm 5 mps 752 mmHg 69%
    10:00 +27°C° 0.1 mm 5 mps 752 mmHg 58%
    11:00 +28°C° 0 mm 5 mps 752 mmHg 53%
    12:00 +29°C° 0 mm 6 mps 751 mmHg 48%
    13:00 +29°C° 0 mm 6 mps 750 mmHg 44%
    14:00 +29°C° 0 mm 6 mps 750 mmHg 45%
    15:00 +28°C° 0 mm 6 mps 750 mmHg 47%
    16:00 +28°C° 0 mm 6 mps 749 mmHg 49%
    17:00 +26°C° 0 mm 5 mps 750 mmHg 58%
    18:00 +23°C° 0 mm 5 mps 750 mmHg 67%
    19:00 +21°C° 0 mm 4 mps 751 mmHg 75%
    20:00 +21°C° 0.1 mm 4 mps 751 mmHg 80%
    21:00 +20°C° 0.1 mm 5 mps 752 mmHg 85%
    22:00 +20°C° 0.1 mm 5 mps 752 mmHg 89%
    23:00 +20°C° 0.3 mm 5 mps 752 mmHg 90%

    26 September, Wednesday

    Time Temperature Precipitation Wind Pressure Humidity
    00:00 +20°C° 0.3 mm 5 mps 752 mmHg 91%
    01:00 +20°C° 0.3 mm 5 mps 751 mmHg 91%
    02:00 +19°C° 0.2 mm 5 mps 751 mmHg 92%
    03:00 +19°C° 0.2 mm 5 mps 751 mmHg 92%
    04:00 +19°C° 0.2 mm 5 mps 751 mmHg 92%
    05:00 +19°C° 0.1 mm 5 mps 751 mmHg 91%
    06:00 +20°C° 0.1 mm 5 mps 751 mmHg 89%
    07:00 +20°C° 0.1 mm 5 mps 752 mmHg 88%
    08:00 +22°C° 0.1 mm 5 mps 752 mmHg 78%
    09:00 +25°C° 0.1 mm 5 mps 752 mmHg 68%
    10:00 +27°C° 0.1 mm 5 mps 752 mmHg 58%
    11:00 +27°C° 0.1 mm 6 mps 752 mmHg 55%
    12:00 +28°C° 0.1 mm 6 mps 751 mmHg 51%
    13:00 +29°C° 0.1 mm 6 mps 751 mmHg 48%
    14:00 +28°C° 0 mm 6 mps 750 mmHg 50%
    15:00 +28°C° 0 mm 5 mps 750 mmHg 52%
    16:00 +27°C° 0 mm 5 mps 749 mmHg 54%
    17:00 +25°C° 0.1 mm 5 mps 750 mmHg 64%
    18:00 +23°C° 0.1 mm 5 mps 751 mmHg 74%
    19:00 +21°C° 0.1 mm 4 mps 751 mmHg 84%
    20:00 +20°C° 0.1 mm 4 mps 752 mmHg 87%
    21:00 +20°C° 0.1 mm 4 mps 752 mmHg 90%
    22:00 +19°C° 0.1 mm 4 mps 753 mmHg 93%
    23:00 +19°C° 0.2 mm 4 mps 752 mmHg 93%

    27 September, Thursday

    Time Temperature Precipitation Wind Pressure Humidity
    00:00 +19°C° 0.2 mm 4 mps 752 mmHg 93%
    01:00 +19°C° 0.2 mm 4 mps 752 mmHg 93%
    02:00 +19°C° 0.1 mm 4 mps 752 mmHg 93%
    03:00 +19°C° 0.1 mm 4 mps 751 mmHg 93%
    04:00 +19°C° 0.1 mm 4 mps 751 mmHg 93%
    05:00 +19°C° 0 mm 4 mps 752 mmHg 91%
    06:00 +20°C° 0 mm 4 mps 752 mmHg 89%
    07:00 +20°C° 0 mm 4 mps 753 mmHg 87%
    08:00 +22°C° 0 mm 4 mps 753 mmHg 75%
    09:00 +25°C° 0 mm 4 mps 753 mmHg 63%
    10:00 +27°C° 0 mm 5 mps 753 mmHg 50%
    11:00 +28°C° 0 mm 5 mps 752 mmHg 48%
    12:00 +28°C° 0 mm 5 mps 751 mmHg 45%
    13:00 +29°C° 0 mm 5 mps 751 mmHg 42%
    14:00 +28°C° 0 mm 5 mps 750 mmHg 44%
    15:00 +28°C° 0 mm 5 mps 750 mmHg 46%
    16:00 +27°C° 0 mm 5 mps 750 mmHg 48%
    17:00 +25°C° 0 mm 4 mps 750 mmHg 56%
    18:00 +22°C° 0 mm 4 mps 751 mmHg 65%
    19:00 +20°C° 0 mm 4 mps 751 mmHg 74%
    20:00 +20°C° 0 mm 3 mps 752 mmHg 78%
    21:00 +20°C° 0 mm 3 mps 752 mmHg 82%
    22:00 +19°C° 0 mm 3 mps 752 mmHg 86%
    23:00 +19°C° 0.1 mm 3 mps 752 mmHg 87%

    28 September, Friday

    Time Temperature Precipitation Wind Pressure Humidity
    00:00 +19°C° 0.1 mm 3 mps 751 mmHg 88%
    01:00 +19°C° 0.1 mm 3 mps 751 mmHg 89%
    02:00 +19°C° 0 mm 3 mps 751 mmHg 89%
    03:00 +19°C° 0 mm 3 mps 750 mmHg 89%
    04:00 +19°C° 0 mm 3 mps 750 mmHg 90%
    05:00 +19°C° 0 mm 3 mps 751 mmHg 88%
    06:00 +19°C° 0 mm 3 mps 751 mmHg 86%
    07:00 +20°C° 0 mm 3 mps 752 mmHg 85%
    08:00 +22°C° 0 mm 3 mps 752 mmHg 74%
    09:00 +25°C° 0 mm 4 mps 752 mmHg 63%
    10:00 +27°C° 0 mm 4 mps 752 mmHg 53%
    11:00 +28°C° 0 mm 4 mps 751 mmHg 50%
    12:00 +29°C° 0 mm 4 mps 750 mmHg 48%
    13:00 +29°C° 0 mm 5 mps 750 mmHg 45%
    14:00 +29°C° 0 mm 5 mps 749 mmHg 48%
    15:00 +28°C° 0 mm 5 mps 749 mmHg 51%
    16:00 +27°C° 0 mm 4 mps 749 mmHg 54%
    17:00 +25°C° 0 mm 4 mps 749 mmHg 64%
    18:00 +23°C° 0 mm 4 mps 750 mmHg 74%
    19:00 +21°C° 0 mm 3 mps 750 mmHg 84%
    20:00 +20°C° 0 mm 3 mps 751 mmHg 87%
    21:00 +20°C° 0 mm 3 mps 751 mmHg 89%
    22:00 +20°C° 0 mm 3 mps 751 mmHg 91%
    23:00 +20°C° 0.1 mm 3 mps 751 mmHg 91%
    Show more